Other Public Products
Issued by NWS Grand Forks, ND

Home | Current Version | Previous Version | Graphics & Text | Print | Product List | Glossary On
Versions: 1 2 3 4 5 6 7 8 9 10 11 12 13 14 15 16 17 18 19 20 21 22 23 24 25 26 27 28 29 30 31 32 33 34 35 36 37 38 39 40 41 42 43 44 45 46 47 48 49 50
655
FPUS83 KFGF 211731
OPUFGF
PRAIRIE TO PINES WEATHER ROUNDUP
NATIONAL WEATHER SERVICE EASTERN NORTH DAKOTA/GRAND FORKS ND
1200 PM CDT THU MAY 21 2015

 **SATELLITE DATA USED TO AUGMENT SKY COVER AT AUTOMATED STATIONS**
 *****  WEATHER ACROSS EASTERN NORTH DAKOTA  *****

CITY           SKY/WX    TMP DP  RH WIND       PRES   REMARKS
GRAND FORKS    MOSUNNY   63  35  35 N8        30.15S
GRAND FORKS AF SUNNY     62  37  38 VRB3      30.16S
GRAND CITY NWS   N/A     63 N/A N/A N7          N/A
BUXTON           N/A     64  37  35 N8          N/A
DEVILS LAKE    SUNNY     61  27  27 CALM      30.17S
FARGO          SUNNY     64  40  41 NW10      30.14S
WAHPETON ARPT  SUNNY     63  36  36 N10G16    30.14S
$$

 *****  WEATHER ACROSS CENTRAL AND WESTERN NORTH DAKOTA  *****

CITY           SKY/WX    TMP DP  RH WIND       PRES   REMARKS
JAMESTOWN      SUNNY     64  38  38 N6        30.16S
BISMARCK       SUNNY     71  34  25 NW7       30.18F
MINOT          SUNNY     66  37  34 VRB3      30.16S
MINOT AFB      SUNNY     69  36  29 VRB2      30.15S
GARRISON         N/A     69  36  29 N5        30.16F
WILLISTON      SUNNY     67  38  34 SE3       30.20F
DICKINSON      SUNNY     66  30  26 N5        30.20F
HETTINGER      SUNNY     62  29  28 CALM      30.24F
$$

 *****  OTHER OBSERVATIONS NORTHEAST NORTH DAKOTA  *****

CITY           SKY/WX    TMP DP  RH WIND       PRES   REMARKS
WALHALLA       FAIR      63  36  36 N13       30.18S
LANGDON        FAIR      64  36  34 N7        30.18S
CAVALIER       FAIR      59  36  41 N6        30.17S
GRAFTON        FAIR      61  37  41 N10       30.17S
CANDO          FAIR      63  28  27 SE3       30.18S
FORT TOTTEN      N/A     63  36  36 N5        29.95S
ROLLA          FAIR      63  23  22 N5        30.19S
RUGBY          NOT AVBL
 ***** THE ABOVE OBSERVATIONS ARE NON NWS ARE NOT QUALITY
        CONTROLLED AND MAY MIS-REPORT RAIN FOR SNOW...
$$

 *****  OTHER OBSERVATIONS SOUTHEAST NORTH DAKOTA *****

CITY           SKY/WX    TMP DP  RH WIND       PRES   REMARKS
COOPERSTOWN    NOT AVBL
VALLEY CITY    FAIR      63  28  27 NW8       30.16S
OAKES            N/A     64  41  42 N8        30.16S
GWINNER        NOT AVBL
SHEYENNE NWR     N/A     64  36  35 N7        29.95S
BUFFALO        NOT AVBL
WYNDMERE         N/A     64  36  34 NW12        N/A
 ***** THE ABOVE OBSERVATIONS ARE NON NWS ARE NOT QUALITY
       CONTROLLED AND MAY MIS-REPORT RAIN FOR SNOW...
$$

  *****  WEATHER ACROSS NORTHERN MINNESOTA  *****

CITY           SKY/WX    TMP DP  RH WIND       PRES   REMARKS
FLAG ISLAND    SUNNY     55  32  41 N7        30.12S
WARROAD        SUNNY     57  37  47 E8        30.14R
ROSEAU         SUNNY     61  36  39 N13       30.13F
HALLOCK        SUNNY     63  34  34 N12       30.15S
THF RVR FALLS  SUNNY     61  30  31 N10       30.14S
HALSTAD          N/A     65  30  26 N7          N/A
FOSSTON        SUNNY     63  32  31 N13G18    30.13S
BAUDETTE       SUNNY     58  32  37 N12G17    30.12R
WASKISH        SUNNY     61  36  39 NW10      30.11S
CROOKSTON      SUNNY     63  34  34 N10       30.15S
$$
  *****  WEATHER ACROSS CENTRAL AND WEST MINNESOTA  *****

CITY           SKY/WX    TMP DP  RH WIND       PRES   REMARKS
BEMIDJI        SUNNY     60  31  34 N13       30.12R
PARK RAPIDS    SUNNY     64  29  26 N13       30.09R
WADENA         SUNNY     63  34  34 NW15      30.09S
DETROIT LAKES  SUNNY     61  32  33 N7G21     30.14S
MOORHEAD       SUNNY     63  39  42 N10G16    30.15R
FERGUS FALLS   SUNNY     64  36  34 N9G20     30.13S
ELBOW LAKE     FAIR      64  38  38 N12G17    30.12R
MORRIS MN      SUNNY     68  36  30 N17G23    30.11S
STAPLES        SUNNY     64  27  24 N15       30.08S
WHEATON        SUNNY     63  36  36 NW10G18   30.15S
$$
  *****  WEATHER ELSEWHERE ACROSS MINNESOTA  *****

CITY           SKY/WX    TMP DP  RH WIND       PRES   REMARKS
DULUTH         SUNNY     58  35  42 SE8       30.02R
INTRNTL FALLS  SUNNY     58  32  37 N12       30.08S
ELY            SUNNY     59  25  27 NW12G21   30.03S
CLOQUET        SUNNY     64  27  24 N16G22    30.02S
BRAINERD       SUNNY     64  30  27 NW17G25   30.07R
HIBBING        SUNNY     63  29  27 N16G22    30.04S
ALEXANDRIA     SUNNY     64  36  35 N14G22    30.11R
SAINT CLOUD    SUNNY     66  37  34 N13G22    30.04S
MINNEAPOLIS    SUNNY     68  39  34 NW12G22   30.02S
$$

  *****  WEATHER ACROSS SOUTH DAKOTA  *****

CITY           SKY/WX    TMP DP  RH WIND       PRES   REMARKS
SIOUX FALLS    MOSUNNY   68  39  34 NW18G26   30.17F
BROOKINGS      SUNNY     66  37  34 NW17      30.17S
WATERTOWN      MOSUNNY   64  40  41 W12       30.16S
HURON          SUNNY     70  35  27 NW16G24   30.18F
SISSETON         N/A     67  34  29 N15G23    30.13F
ABERDEEN       SUNNY     68  40  35 NW16      30.17S
MITCHELL       SUNNY     70  36  28 NW15G24   30.21F
PIERRE         SUNNY     64  36  35 W12       30.23F
MOBRIDGE       SUNNY     70  31  23 NW10      30.18F
RAPID CITY     SUNNY     57  28  33 S14G20    30.24F
$$

  *****  SOME WEATHER IN NEARBY STATES *****

CITY           SKY/WX    TMP DP  RH WIND       PRES   REMARKS
GLASGOW MT     SUNNY     63  33  32 SE8G18    30.18F
GREAT FALLS MT SUNNY     60  38  43 SE7       30.04S
CHEYENNE WY    CLOUDY    40  37  89 S12       30.20F
SCOTTSBLUFF NE CLOUDY    51  39  63 SE8       30.23F
OMAHA NE       MOSUNNY   65  44  46 NW12      30.23F
DES MOINES IA  MOSUNNY   68  43  40 NW14      30.16F
DAVENPORT IA   SUNNY     62  41  46 W13G21    30.13F
CHICAGO IL     MOSUNNY   60  39  45 NW8G18    30.07F
EAU CLAIRE WI  SUNNY     68  39  34 W10       29.98F
LA CROSSE WI   SUNNY     70  42  36 SW9       30.02F
$$

  *****  SOME NATIONAL WEATHER *****

CITY           SKY/WX    TMP DP  RH WIND       PRES   REMARKS
LA GUARDIA NY  CLOUDY    61  33  35 SW10      29.97F
RALEIGH NC     TSTM      64  63  94 N5        29.85F FOG
ATLANTA GA     MOSUNNY   76  60  57 NW9G23    29.99F
NEW ORLEANS LA PTSUNNY   85  71  63 NW9       30.04S HX  90
OKLAHOMA CITY  PTSUNNY   61  44  53 NE10      30.28S
ALBUQUERQUE NM CLOUDY    62  44  51 E25       30.16F
SALT LAKE CITY PTSUNNY   61  45  55 N6        29.96F
LOS ANGELES CA PTSUNNY   62  51  67 W9        29.97S
BOISE ID       MOSUNNY   66  50  56 W3        29.91F
SEATTLE WA     PTSUNNY   62  53  72 W3        29.89S
$$

*** WEATHER ACROSS MANITOBA...SASKATCHEWAN AND ONTARIO ***
                ***ONTARIO***

CITY           SKY/WX    TMP DP  RH WIND       PRES   REMARKS
GERALDTON      MOSUNNY   48  18  29 NW14G24   29.95R
THUNDER BAY    MOSUNNY   61  28  29 N12G20    29.98F
SIOUX LOOKOUT  SUNNY     52  25  35 NW14G21   30.09R
TORONTO        MOSUNNY   64  32  29 W15G26    29.90F
BIG TROUT LK   CLOUDY    32  19  59 N10G17    30.16R WCI  24
PICKLE LAKE    MOSUNNY   46  14  27 N12G25    30.05R
DRYDEN         SUNNY     52  23  32 N12G20    30.10R
KENORA         MOSUNNY   55  28  35 N13       30.13S
$$
                *** MANITOBA***

CITY           SKY/WX    TMP DP  RH WIND       PRES   REMARKS
BRANDON        SUNNY     63  30  29 VRB2      30.18S
DAUPHIN        SUNNY     68  32  26 N5        30.15F
ISLAND LAKE    MOSUNNY   46  23  39 NW10      30.19F
PILOT MOUND      N/A     61  27  27 N5          N/A
THE PAS        MOSUNNY   68  39  34 S13       30.10F
THOMPSON       MOSUNNY   54  23  30 VRB3      30.18F
WINNIPEG       MOSUNNY   61  36  39 N10G17    30.18R
LYNN LAKE      SUNNY     59  25  27 SE13G18   30.11F
CHURCHILL      MOSUNNY   34  23  64 NE5       30.25F
GILLAM         MOSUNNY   41  19  42 NW3       30.22F
$$
                ***SASKATCHEWAN***

CITY           SKY/WX    TMP DP  RH WIND       PRES   REMARKS
ESTEVAN        SUNNY     72  32  23 NW7       30.17F
KINDERSLEY     SUNNY     68  25  19 S20G26    30.13F
LLOYDMINSTER   SUNNY     68  25  19 S16G26    30.11F
PRINCE ALBERT  MOSUNNY   75  30  19 SW5       30.11F
REGINA         MOSUNNY   72  30  21 N8        30.18S



USA.gov is the U.S. government's official web portal to all federal, state and local government web resources and services.